Back to catalog

COSMOS 2251 DEB

AliveLEO
NORAD 35789·DEBRIS·🇷🇺 Russia

Launched Jun 16, 1993 from Plesetsk Cosmodrome

Loading…

Next Passes (next 24 hours)

TLE

AgingSource: Space-Track

Epoch: Sep 11, 2026, 02:51 UTC

1 35789U 93036ASK 26254.11897509  .00000149  00000-0  59483-4 0  9999
2 35789  74.0385 144.3370 0048046 180.0475 180.0682 14.36145030651374

Track COSMOS 2251 DEB in real time with AllMySat

Download on the App Store